Wind_Speed
18 18 18 18 19 19 19 19 19 19 19 19 19 18 18 17 18 18 18 17 17 17 16 16 15 15 15 15 16 18 19 20 21 23 17 13 15 16 13 13 15 19 22 23 23 23 22 20 19 17 16 14 13 11 11 13 11 10 12 9 9 7 1 1 1 2 4 4 3 4 4 5 7 8 11 14 13 13 14 11 11 8 7 10 13 18 23 26
18 18 18 18 18 18 18 18 18 19 19 19 19 18 18 18 18 18 18 17 16 16 16 16 16 15 15 15 15 16 18 18 22 19 11 13 18 15 13 12 13 17 21 23 23 23 22 20 19 18 17 15 13 12 10 12 13 12 11 9 8 6 4 4 3 5 3 4 2 4 4 4 7 8 10 12 13 15 15 12 15 15 10 10 11 17 23 25
18 18 18 18 19 19 19 19 18 19 19 19 19 18 18 17 18 19 19 18 16 16 16 16 16 17 15 15 15 15 16 17 19 11 6 14 19 15 14 13 13 15 18 20 21 21 21 19 19 18 17 15 14 14 12 12 13 13 12 11 9 5 5 6 2 3 3 3 1 3 4 4 5 7 7 10 13 15 16 13 15 15 11 11 13 18 23 24
17 18 18 18 19 19 19 19 19 19 19 19 19 18 18 17 18 19 20 19 17 16 15 16 16 17 16 15 14 14 15 15 17 12 11 16 17 15 15 13 13 14 16 19 20 20 20 18 18 17 17 17 15 14 15 14 13 12 12 11 10 9 6 8 9 2 2 1 0 1 5 6 4 5 6 8 13 12 13 14 12 11 9 13 15 18 21 23
18 18 18 18 18 18 18 18 19 19 19 19 19 18 18 18 18 19 19 19 18 16 16 16 17 18 17 16 14 14 13 10 14 14 13 16 17 15 14 12 12 13 15 18 21 21 20 18 17 17 19 18 15 16 17 16 14 12 12 10 11 13 11 8 8 5 2 5 3 2 5 7 5 5 5 6 9 7 10 13 10 8 9 12 14 17 19 21
18 18 18 18 18 19 18 18 18 18 19 19 19 18 18 18 18 19 19 19 18 17 16 16 18 19 18 18 15 14 11 9 13 11 8 15 19 17 14 12 11 12 15 19 22 22 21 19 19 20 21 20 17 18 17 15 16 15 13 11 12 14 13 9 6 3 2 5 5 3 2 4 3 5 5 4 7 5 10 13 11 10 10 12 14 16 18 19
20 20 20 20 19 19 19 19 18 18 19 19 18 18 18 18 18 18 18 19 18 18 17 17 19 19 18 19 16 15 14 13 17 15 10 13 17 19 17 15 13 14 17 20 23 23 22 21 22 22 22 21 19 18 17 15 16 18 16 12 12 12 12 12 9 5 3 7 7 3 1 3 2 4 5 5 5 4 10 12 10 12 12 14 15 16 18 18
22 22 22 22 21 21 21 20 20 19 19 19 18 18 18 18 18 18 18 19 19 18 18 17 19 19 19 19 18 18 13 8 13 20 17 14 16 18 19 17 16 15 16 19 22 22 22 23 24 23 23 22 19 17 17 16 17 19 19 14 12 12 11 12 12 10 9 10 8 4 4 4 3 3 4 7 5 5 10 9 8 11 12 14 17 17 19 19
23 23 23 23 23 23 23 22 22 22 21 20 19 19 18 18 18 18 18 19 18 18 18 19 19 19 19 19 21 19 10 7 15 19 17 16 16 17 19 19 18 17 16 18 21 22 22 24 24 24 23 21 18 17 17 18 19 19 19 17 14 13 12 12 12 12 13 11 8 8 7 5 4 4 5 10 9 7 10 9 8 10 10 13 16 17 19 20
23 23 24 24 24 24 24 24 24 24 23 22 21 20 19 19 19 18 19 19 19 18 18 19 20 20 20 19 22 18 9 10 17 19 17 16 16 15 17 19 19 18 16 17 21 23 24 23 22 23 21 19 18 18 19 20 19 16 17 17 18 17 14 13 13 13 14 13 10 9 8 7 7 7 7 12 13 10 12 13 10 10 10 12 15 17 18 18
23 23 24 24 24 24 24 24 25 25 25 24 23 21 20 20 19 18 19 19 19 18 18 20 20 21 21 21 23 18 11 11 15 20 19 17 15 14 16 18 19 19 17 17 20 23 24 22 20 20 22 21 19 19 20 21 19 17 16 16 17 19 19 17 15 14 14 12 12 11 10 8 8 9 8 12 15 14 16 16 11 8 10 12 13 16 18 18
24 24 25 25 25 25 25 25 25 25 25 25 25 23 22 21 20 19 19 19 19 19 18 19 21 21 22 25 19 12 13 15 18 18 17 19 15 13 15 17 18 18 18 18 19 22 23 22 20 21 22 20 19 18 18 20 21 19 18 18 17 17 19 20 18 16 14 13 12 11 12 12 12 11 9 13 16 16 18 16 15 12 8 10 11 14 17 19
25 25 26 26 26 26 26 26 25 25 26 26 26 24 23 22 22 21 20 20 19 19 19 19 21 21 24 26 14 10 17 19 22 21 19 21 17 13 17 18 18 18 17 17 18 21 23 22 22 22 21 19 19 18 14 15 19 21 19 19 18 17 19 19 19 19 17 16 14 12 14 13 15 14 11 14 16 18 19 17 19 17 9 9 10 11 14 18
27 27 27 27 27 27 27 27 27 26 26 27 26 25 24 24 23 22 21 21 20 20 20 19 20 21 26 24 13 16 21 20 24 25 22 21 18 17 19 19 18 18 17 17 18 19 21 22 22 22 23 22 20 19 17 16 16 18 20 21 21 20 19 17 18 20 20 19 15 16 16 12 12 15 14 16 18 19 20 18 19 19 14 10 8 9 11 15
28 28 29 29 29 28 29 29 28 28 27 27 27 27 25 24 24 24 23 22 21 21 20 21 21 22 27 23 16 21 22 21 25 24 22 21 19 18 20 22 20 18 17 18 19 18 20 21 23 24 24 23 22 21 22 21 19 18 20 23 23 21 19 17 18 20 21 19 17 19 18 12 9 14 17 18 19 20 19 18 18 19 19 15 9 9 10 11
30 30 30 30 31 30 30 30 30 29 28 27 28 28 27 25 25 25 24 23 23 22 21 22 21 22 25 21 19 23 23 21 22 22 22 22 20 18 19 22 21 19 18 17 19 18 19 21 24 25 23 22 24 24 21 21 22 22 22 23 21 21 20 18 18 20 22 19 19 21 19 14 9 12 18 19 19 19 18 19 19 18 20 19 13 8 8 9
30 31 32 32 33 32 32 32 32 31 30 28 27 28 28 26 26 26 25 24 23 23 23 23 22 23 24 22 20 18 19 21 21 22 24 23 21 19 18 22 22 20 19 18 20 19 20 23 24 25 25 25 26 25 23 24 24 23 23 23 20 20 20 19 17 18 22 21 21 22 20 15 11 13 15 17 19 19 19 20 19 19 19 20 18 11 10 11
31 32 32 33 34 34 34 34 35 34 33 31 28 28 28 26 25 28 27 25 24 24 24 23 24 22 16 16 17 11 13 18 22 25 25 23 21 20 20 22 22 21 20 20 22 22 22 24 24 25 27 28 28 29 30 29 23 20 21 22 21 20 21 21 18 17 20 23 22 22 22 17 14 16 16 16 18 18 21 21 18 20 21 21 22 16 14 13
30 31 32 33 34 34 35 35 36 36 36 35 31 29 28 26 23 27 30 26 25 25 21 20 24 21 10 9 10 11 12 13 19 26 26 24 22 23 23 22 23 23 24 24 25 26 24 24 27 30 32 33 33 34 34 29 22 19 20 21 20 20 22 22 18 16 19 22 23 22 22 20 16 18 19 18 20 19 19 21 20 20 23 25 24 19 17 15
28 29 31 32 33 34 34 35 36 37 38 38 36 33 31 28 24 25 29 25 24 26 24 23 29 27 20 17 9 7 12 14 19 25 25 25 23 24 25 24 24 25 28 28 26 27 26 26 33 37 36 33 33 33 30 27 24 22 21 22 22 21 21 20 18 17 18 20 23 23 22 22 19 19 21 20 21 21 19 20 21 19 22 25 21 18 20 18
27 28 29 30 31 32 32 33 35 37 37 39 39 37 34 33 30 29 32 28 25 28 30 29 32 31 25 24 17 9 10 15 19 21 24 26 24 26 28 28 28 30 32 29 25 25 27 31 38 38 34 30 30 30 29 27 27 27 25 23 23 23 22 20 19 18 18 19 21 23 23 23 22 21 21 21 21 22 21 20 20 20 21 23 20 18 21 20
27 27 28 29 30 30 30 30 33 35 35 38 39 37 36 35 33 33 37 36 28 26 32 32 33 35 28 25 25 21 17 18 19 22 25 26 27 29 30 32 32 32 32 29 26 26 31 39 39 33 31 30 28 28 30 29 28 29 29 26 24 23 22 21 20 20 20 19 19 21 24 24 23 22 22 23 22 22 22 21 21 20 20 21 23 21 19 19
28 28 28 29 29 29 30 29 30 32 35 38 38 37 38 37 35 34 36 43 36 27 30 34 33 35 31 28 28 28 28 26 23 25 27 30 32 31 31 34 34 31 31 33 33 31 35 40 36 30 29 30 30 28 29 31 29 29 29 28 25 22 22 21 22 23 22 21 18 18 23 25 24 23 23 24 23 23 22 21 20 21 21 22 22 20 17 16
29 29 29 29 29 29 31 31 30 30 33 35 34 36 38 37 37 36 35 43 45 35 29 30 33 35 33 27 27 33 35 32 27 27 30 33 34 33 32 33 33 32 33 35 36 36 35 31 26 29 30 30 32 31 29 31 31 30 30 30 27 22 21 20 18 22 23 23 21 18 20 24 25 25 25 25 24 24 24 23 22 21 23 23 21 22 18 16
28 29 30 30 29 28 30 32 31 30 30 30 31 34 36 36 34 36 37 38 45 40 28 27 31 33 30 25 28 35 36 36 32 28 31 36 35 36 33 31 34 35 34 35 35 37 36 26 21 27 31 32 32 32 32 31 30 31 32 32 29 23 22 21 18 19 22 22 24 22 17 18 24 25 25 25 25 25 25 25 25 23 22 24 25 25 22 17
28 28 29 30 30 27 27 29 30 29 28 28 30 31 33 35 31 31 32 31 38 35 20 20 23 22 26 30 33 32 31 38 37 29 30 36 36 36 33 31 34 34 32 32 33 36 34 27 23 26 29 32 33 33 33 31 29 29 30 31 31 26 24 23 22 21 21 21 24 25 19 15 21 25 25 26 25 26 26 26 27 25 24 26 26 26 23 18
29 28 28 29 29 29 27 27 29 28 27 27 28 29 29 29 27 26 23 17 20 15 5 11 11 12 19 27 32 32 28 30 35 34 32 35 36 36 34 32 33 32 31 29 31 34 33 30 29 27 28 31 34 34 32 32 32 28 25 25 29 30 26 24 25 25 23 22 23 26 25 20 21 25 26 28 28 27 29 29 29 29 27 27 24 24 26 21
30 28 27 27 28 30 29 28 29 27 26 27 27 26 23 22 21 17 12 7 5 4 2 7 9 13 15 18 30 37 28 17 25 36 36 34 37 38 38 35 33 31 31 32 35 33 30 33 33 30 29 30 33 34 30 31 32 28 22 20 25 29 29 26 25 24 23 22 21 26 28 21 20 24 23 26 32 31 31 31 31 31 31 30 27 26 27 22
29 28 27 26 26 28 28 28 30 29 28 28 26 22 18 16 14 9 6 8 8 5 2 2 5 12 14 17 26 33 28 15 15 25 32 36 38 38 39 37 32 29 31 35 34 28 27 31 32 31 32 30 30 30 29 30 31 27 22 19 20 23 28 30 27 25 23 21 21 24 29 21 16 23 26 27 31 33 32 32 31 31 32 30 28 27 26 23
28 28 27 27 25 25 26 26 28 29 28 25 23 20 17 11 7 8 7 9 10 7 3 2 3 5 11 15 23 28 30 24 13 15 28 37 38 38 35 32 31 30 31 34 34 30 26 26 29 33 32 29 26 27 28 29 28 24 22 22 20 19 22 25 28 29 21 17 21 26 27 20 12 18 27 29 31 31 30 31 31 32 32 30 28 27 27 25
28 27 26 26 25 25 24 24 23 24 25 23 20 15 12 9 8 11 8 8 11 7 2 7 10 2 7 12 22 26 28 28 20 18 28 37 37 38 35 30 33 33 30 34 35 33 30 26 29 32 32 28 25 25 27 27 27 25 23 24 21 19 20 20 24 26 17 13 22 28 26 21 17 18 21 22 25 27 27 29 32 33 32 31 29 28 29 28
28 27 25 25 24 23 24 26 27 26 24 20 17 11 9 11 12 15 13 12 9 7 9 16 14 9 9 10 18 24 26 28 27 24 28 36 38 40 41 36 36 34 33 35 33 31 35 34 29 28 31 31 28 26 26 27 29 27 25 26 21 15 17 15 13 16 14 13 20 26 26 25 27 27 23 20 20 23 25 27 29 32 33 31 31 32 34 33
28 27 25 23 23 26 30 32 31 29 24 18 13 11 10 11 11 14 20 18 12 15 21 25 21 16 16 16 13 18 24 26 29 27 26 34 36 38 42 39 37 36 32 30 30 30 32 34 33 30 31 35 33 29 29 30 31 31 29 28 22 13 10 10 9 9 12 15 20 23 23 27 30 29 27 26 22 20 23 26 27 30 32 33 34 37 37 34
29 28 27 25 26 31 33 31 28 26 23 16 13 13 12 12 13 15 19 18 18 22 26 29 26 21 18 15 12 13 20 22 27 29 26 32 36 36 39 40 39 37 30 26 29 31 26 27 38 39 32 34 38 33 29 28 30 32 31 28 26 21 12 9 9 10 10 13 20 23 21 23 25 23 25 28 27 24 22 23 26 29 32 35 36 37 35 34
30 30 28 25 26 27 27 25 25 24 20 14 12 12 12 11 11 11 15 21 26 27 30 31 26 24 22 17 14 13 16 17 22 27 27 31 35 35 36 40 42 38 33 28 27 31 28 26 35 39 31 30 37 36 30 27 28 29 30 29 30 28 20 13 12 16 17 13 15 22 24 25 22 19 20 22 26 30 27 24 24 28 35 36 34 34 32 33
31 30 26 23 21 19 22 23 22 20 15 12 10 9 12 14 14 20 24 25 27 29 32 28 19 19 22 18 13 11 14 18 20 26 27 28 32 35 33 35 41 41 38 33 27 26 28 27 27 33 34 31 33 36 34 29 25 27 32 34 31 27 23 18 13 16 19 12 11 19 23 24 22 21 21 20 20 24 28 29 26 26 32 32 31 35 33 31
29 26 24 21 17 17 22 21 19 17 12 10 8 9 15 20 22 26 25 24 25 26 26 23 17 16 19 18 16 14 18 18 16 22 29 29 28 34 34 31 36 41 42 36 29 24 23 24 25 32 37 34 30 33 36 32 25 26 32 33 27 23 23 21 13 10 12 9 10 19 21 21 21 19 21 23 22 22 23 28 29 28 29 29 33 40 37 32
24 22 21 18 16 20 21 17 15 13 9 11 10 10 14 17 21 22 20 22 24 23 22 20 19 20 22 23 24 25 26 21 18 18 23 29 26 28 32 32 31 37 43 39 33 27 22 21 24 31 37 35 30 31 35 35 31 27 27 29 28 23 22 23 15 9 9 7 7 15 19 20 21 20 21 23 25 25 23 25 29 31 29 27 32 40 40 36
21 17 15 16 20 20 17 14 13 11 10 11 11 11 12 14 17 18 18 20 20 20 20 19 21 25 26 25 27 29 26 24 25 25 17 20 23 22 25 27 27 30 39 43 39 32 25 21 21 29 35 34 33 35 37 38 36 29 24 27 31 25 21 24 21 13 10 7 6 9 11 13 18 19 19 21 23 24 23 24 27 30 29 26 28 35 39 36
20 13 7 19 25 19 14 13 12 11 10 11 12 12 12 14 15 16 18 18 18 18 18 20 22 25 27 26 26 28 27 27 25 22 20 16 7 12 19 21 19 21 29 39 44 39 30 25 21 25 33 37 37 40 40 38 39 36 30 28 30 27 23 22 23 22 15 7 5 6 7 13 19 20 19 19 20 22 21 21 24 28 30 28 27 30 34 32
21 11 8 20 21 14 11 11 9 10 10 11 12 13 14 15 16 15 15 16 16 16 17 20 21 23 26 25 25 27 27 28 26 21 24 23 17 9 6 7 8 16 21 26 38 43 36 28 24 23 30 39 41 39 38 37 38 39 34 30 29 29 26 18 15 23 22 14 8 6 5 6 9 16 19 17 17 19 19 19 21 25 28 30 30 29 31 32
20 13 12 17 18 15 13 10 8 9 10 12 13 14 15 15 15 15 14 14 16 16 16 17 18 20 22 22 24 26 25 29 29 24 25 23 15 16 15 9 3 11 11 12 23 38 38 28 25 26 28 34 37 33 34 34 35 37 35 31 28 29 30 22 12 17 22 19 14 12 8 1 6 10 15 13 13 17 17 17 19 23 24 27 30 29 32 35
19 12 12 13 22 20 14 9 10 10 12 13 13 14 14 14 14 14 14 15 16 16 15 16 16 18 20 19 22 24 24 28 29 22 24 22 12 15 21 18 8 3 4 9 17 29 33 28 25 25 24 26 33 32 31 32 32 35 38 35 30 29 31 25 16 16 19 20 18 12 8 4 8 10 14 11 10 13 16 17 18 21 22 22 26 28 31 35
19 12 12 12 25 20 11 9 12 13 14 15 15 14 13 12 12 12 14 15 16 15 16 16 16 17 20 19 20 22 20 23 24 20 22 25 23 20 18 17 11 8 9 6 17 20 23 26 27 21 15 17 27 28 27 34 36 35 37 38 35 30 29 26 22 19 16 19 20 13 8 8 11 12 13 10 10 11 14 16 16 19 20 18 22 26 30 33
20 13 9 14 21 16 9 9 12 14 15 16 17 15 13 12 11 12 15 15 15 14 15 18 18 18 20 19 19 20 18 19 22 24 26 28 27 20 12 12 10 12 14 11 20 15 13 19 25 20 13 13 19 21 26 33 35 34 34 37 38 34 30 28 25 21 15 16 21 18 13 11 16 15 12 10 12 13 15 17 17 19 19 19 24 28 30 32
19 14 13 16 16 11 8 10 12 15 16 16 17 15 13 14 13 12 14 13 14 16 17 19 19 18 18 17 17 19 18 16 18 22 27 29 28 20 10 8 8 11 18 17 18 10 9 15 21 23 22 17 11 15 25 30 32 34 33 35 40 38 33 29 26 23 18 16 20 21 16 15 20 15 11 12 12 13 17 19 19 22 20 17 24 30 29 30
14 12 13 17 15 9 10 13 13 15 17 18 17 16 15 15 14 13 13 12 15 20 21 19 17 16 17 17 17 17 16 15 15 20 25 26 27 21 10 4 11 13 14 16 10 8 12 16 21 25 26 21 9 7 9 15 26 35 34 33 37 39 36 32 28 24 21 16 16 20 17 15 18 15 12 17 15 12 18 20 18 21 19 14 20 28 29 31
15 12 11 12 14 12 14 17 16 17 20 18 16 16 16 14 14 14 14 13 16 20 22 20 16 15 18 19 17 16 15 16 15 19 24 24 25 23 16 6 8 5 5 5 4 9 10 13 21 26 26 21 16 11 6 5 10 23 34 35 35 38 39 35 30 26 23 18 15 19 16 11 15 17 16 20 19 14 18 20 16 16 15 12 15 22 27 28
20 18 15 13 15 15 15 17 17 18 19 17 15 16 15 12 13 15 15 16 16 16 19 21 19 17 19 20 18 15 14 15 15 15 17 19 20 22 20 10 3 9 12 11 6 6 8 11 17 25 28 23 19 18 13 8 8 12 27 35 32 35 39 36 31 27 24 20 16 18 16 10 14 19 17 18 21 17 16 17 15 12 11 10 12 14 15 17
24 18 17 17 17 16 14 14 16 17 17 17 16 15 12 12 14 15 14 16 18 16 15 17 19 18 19 20 18 15 13 13 15 15 14 14 15 17 16 12 2 10 21 20 12 9 6 10 11 17 25 24 22 20 16 14 13 14 17 31 34 32 35 37 33 29 26 23 19 19 19 15 12 17 18 18 21 19 14 16 17 12 9 13 15 13 9 10
27 17 18 19 17 15 13 12 13 16 17 18 16 15 13 13 16 16 15 18 21 17 14 16 18 18 18 19 19 16 14 13 14 15 15 14 14 14 13 10 8 12 19 23 21 14 8 7 9 14 17 19 21 22 18 17 17 17 18 25 35 32 32 35 34 30 27 24 22 22 23 21 15 18 24 22 19 17 14 15 15 11 10 15 16 13 12 12
30 18 17 19 18 14 13 13 12 14 16 17 16 16 16 16 17 18 18 20 19 17 17 18 18 18 18 20 20 17 15 15 15 15 16 16 15 14 15 13 9 14 19 23 20 15 12 10 7 11 15 19 20 20 19 17 15 16 17 19 29 29 28 32 33 31 29 27 25 21 22 23 19 19 23 21 17 16 13 13 12 10 10 13 13 12 13 13
Wind_Direction
311 310 309 308 307 306 306 305 304 303 302 301 301 302 301 299 296 294 292 292 292 292 294 293 291 288 283 275 268 264 259 254 254 253 248 240 238 242 246 242 232 223 218 212 210 211 210 212 216 219 221 226 233 223 219 240 242 240 249 249 269 276 244 303 257 9 36 66 86 152 143 126 128 123 131 129 129 129 127 121 114 139 171 149 156 170 168 161
318 316 315 314 311 310 308 307 306 303 302 300 299 299 300 299 296 293 291 290 289 289 290 290 290 288 284 280 275 268 264 259 254 252 244 239 243 244 244 241 233 226 221 215 210 210 209 210 213 217 219 219 228 233 221 228 231 230 243 241 248 260 199 161 91 101 109 357 355 169 157 150 143 138 148 137 129 132 131 130 137 156 173 153 154 170 172 166
324 323 322 320 318 316 313 311 308 306 304 301 300 299 298 296 293 292 290 289 288 287 287 286 286 284 284 281 278 274 268 263 259 249 217 234 240 240 241 240 233 225 221 217 213 211 209 209 214 216 216 216 220 232 232 225 229 231 235 244 247 234 197 201 217 115 124 322 308 165 167 161 151 152 160 146 139 139 135 134 150 168 177 164 156 166 174 172
331 329 327 325 323 321 319 316 313 310 307 304 303 301 298 294 291 289 288 288 287 287 285 283 282 281 282 280 280 278 272 274 269 247 221 237 240 236 237 235 230 224 216 213 210 209 209 206 213 215 211 217 219 225 231 225 226 231 230 240 249 254 257 239 242 226 115 272 84 87 200 171 148 163 157 147 148 151 149 147 164 174 166 163 158 163 174 174
334 332 330 329 327 326 324 321 318 315 311 308 306 303 300 295 291 287 286 287 286 286 284 281 279 277 278 278 278 276 276 285 274 251 223 231 240 238 231 228 226 219 210 208 206 205 205 203 207 212 211 216 219 223 229 227 224 230 235 237 247 265 271 245 238 212 200 270 261 300 220 158 128 163 145 142 157 170 166 165 185 177 155 161 157 160 171 175
332 330 329 328 327 327 326 323 321 318 315 311 309 306 301 297 292 288 286 286 285 283 280 278 276 274 276 275 274 273 263 248 259 263 220 218 230 236 230 222 222 215 206 203 203 203 200 198 203 209 213 216 217 224 230 228 226 233 242 238 240 262 266 248 249 208 180 264 258 313 253 152 128 165 134 151 179 187 173 175 190 175 160 159 153 158 169 176
327 325 324 323 323 323 322 320 319 318 316 314 312 309 305 300 295 290 288 284 282 280 277 275 273 273 273 273 273 268 258 250 262 271 252 225 225 231 230 223 221 217 208 203 199 199 199 197 203 208 213 218 218 222 229 230 228 233 242 243 236 248 255 246 252 264 250 248 256 323 247 193 186 176 147 163 174 147 159 179 187 171 169 162 154 156 164 174
323 321 319 319 318 318 316 315 314 313 313 312 313 311 308 304 298 294 289 283 280 277 274 271 270 270 270 271 271 266 263 254 254 259 251 235 227 227 230 225 223 223 213 208 200 194 200 202 203 207 213 220 220 223 229 232 233 234 240 245 243 242 242 239 241 249 249 244 252 263 237 224 210 202 170 163 154 128 150 181 186 170 178 167 159 159 162 170
321 319 317 316 315 314 311 311 309 308 308 307 308 309 308 305 302 298 291 285 281 276 273 269 267 267 267 268 267 264 264 224 225 247 251 237 231 226 227 225 223 226 219 212 201 193 201 206 206 208 214 222 225 229 230 232 235 236 239 242 245 247 242 241 240 241 243 238 241 248 243 240 215 202 181 163 163 161 162 177 163 156 179 170 164 166 164 169
321 318 316 314 313 311 309 308 306 305 304 303 303 303 304 302 302 300 294 289 283 277 272 268 265 264 263 262 262 258 258 248 237 248 255 242 233 225 223 222 221 223 221 216 202 195 203 208 209 212 219 227 230 235 233 232 238 239 240 244 244 247 246 246 244 240 242 232 228 244 242 240 224 207 197 172 167 163 160 172 158 139 164 171 171 173 170 172
321 319 316 314 312 310 309 307 305 303 302 300 299 299 299 297 297 297 295 291 286 281 272 267 263 261 260 256 258 256 251 257 252 253 258 251 234 224 224 221 221 219 217 218 204 198 205 207 209 215 222 228 230 238 238 234 240 242 241 246 248 248 247 245 243 237 240 234 230 241 242 243 229 211 200 174 170 167 163 174 175 144 153 169 178 178 176 177
324 321 319 317 314 312 309 307 305 302 300 298 297 296 294 293 292 291 292 290 288 284 276 269 263 260 258 254 256 259 244 238 243 248 254 255 242 223 226 223 221 220 217 215 203 200 207 207 209 215 221 226 230 236 242 239 240 244 241 242 248 249 246 242 239 235 233 233 231 233 239 240 226 214 200 178 172 171 169 172 177 175 162 161 179 187 183 181
328 325 323 321 318 315 312 309 307 304 301 298 295 294 291 290 288 287 286 285 285 284 279 272 266 260 256 255 253 244 238 234 239 239 237 250 251 225 220 222 218 216 216 209 200 204 209 209 213 218 222 226 230 232 240 244 240 241 238 239 246 248 247 240 235 234 230 230 225 220 233 237 222 213 199 183 175 169 170 169 174 183 180 160 170 184 187 187
332 330 327 324 322 319 316 313 310 307 304 300 297 293 291 288 286 284 282 280 280 279 279 275 269 263 257 255 248 238 238 234 239 241 235 240 245 229 217 216 214 208 209 200 195 209 214 213 217 222 226 228 231 235 243 246 239 239 236 235 241 245 247 241 233 229 226 228 219 218 233 237 220 209 194 180 175 172 170 170 174 178 181 183 177 172 184 194
339 337 334 331 328 325 321 317 313 311 307 304 300 295 292 289 285 282 279 277 276 275 275 273 269 266 262 259 248 240 236 231 237 241 240 237 233 226 218 212 208 205 207 195 190 208 216 216 219 223 227 228 231 238 243 242 236 234 232 230 232 239 246 244 234 224 221 222 213 217 229 234 227 207 192 181 176 178 177 175 179 176 176 189 199 180 179 193
348 345 344 341 338 335 330 324 320 316 312 308 303 298 294 291 287 282 277 274 272 272 270 269 269 267 267 263 248 241 238 234 238 241 238 236 230 220 217 215 207 207 212 200 192 204 215 216 220 223 225 226 228 232 240 241 234 227 227 230 227 230 241 243 234 222 216 216 212 216 223 227 224 192 183 183 181 183 183 180 181 179 178 189 201 197 188 195
353 351 350 347 346 345 340 336 330 325 319 314 308 302 297 294 290 283 278 273 270 269 266 266 266 264 265 263 255 252 250 237 230 237 236 233 227 212 209 214 208 209 214 207 200 203 212 215 217 222 223 224 224 222 229 233 228 221 220 228 229 227 235 237 232 221 212 212 212 215 221 221 207 184 180 186 190 188 187 184 181 185 190 192 196 209 214 205
353 351 350 348 348 347 346 343 339 335 329 323 318 310 303 299 295 287 279 273 269 266 264 265 261 261 268 261 253 251 256 243 226 229 234 232 222 202 201 209 205 206 209 209 208 205 209 212 213 219 220 221 219 215 219 222 221 219 215 221 227 228 231 231 229 219 209 210 212 214 217 214 206 200 198 198 198 195 196 199 196 194 192 188 194 216 226 213
351 349 348 348 347 347 347 344 343 340 335 332 328 321 310 300 296 290 281 274 269 261 258 261 251 243 235 228 232 227 235 244 229 225 227 229 218 198 197 203 201 201 203 206 209 204 204 208 211 216 217 216 215 215 218 220 220 224 221 221 225 227 231 231 227 218 209 210 213 215 216 212 210 210 209 207 201 199 201 204 208 203 195 193 197 213 225 222
347 345 344 346 344 344 347 345 344 342 340 338 332 329 323 311 306 296 283 274 269 260 247 247 250 244 230 223 218 223 234 232 226 224 223 224 215 196 195 199 199 200 202 204 206 202 200 209 213 215 215 214 216 217 221 223 225 231 230 227 227 227 231 230 224 215 209 212 214 215 219 216 212 210 207 202 197 200 201 199 207 210 205 207 206 212 223 224
343 342 341 343 342 342 346 346 345 344 344 341 335 337 337 329 323 308 292 275 262 263 254 244 249 249 236 227 216 200 230 234 227 221 218 220 210 195 195 195 195 201 204 202 202 203 205 216 219 217 215 215 218 220 222 224 226 232 237 236 232 229 230 229 223 215 208 215 217 214 220 222 214 207 203 198 198 206 206 200 206 213 215 215 210 212 220 220
339 340 339 341 342 340 343 346 345 344 343 342 341 342 341 337 331 319 307 288 260 253 260 249 243 246 238 229 221 206 210 219 221 217 211 210 203 195 195 195 196 201 201 199 201 203 210 221 222 216 216 216 219 220 221 224 226 230 237 241 240 233 229 226 219 214 209 216 222 216 220 226 221 212 208 207 209 212 210 206 207 212 219 216 211 216 220 219
338 339 339 341 342 338 340 344 344 343 342 344 346 345 341 336 331 324 315 300 278 251 256 255 246 247 239 228 222 215 214 213 212 213 206 203 201 195 196 197 197 201 200 199 202 202 211 223 221 214 216 216 219 220 219 222 225 228 231 235 240 237 232 227 212 205 208 216 221 218 219 225 226 223 220 219 220 219 216 214 210 211 220 223 225 230 229 228
338 339 338 339 341 339 337 340 344 344 344 346 344 342 339 333 331 325 316 307 290 266 258 260 251 247 241 231 222 220 223 221 213 209 207 205 199 195 199 200 198 202 204 202 205 209 216 223 218 213 216 216 218 220 218 219 222 225 227 228 233 235 236 238 220 201 204 216 219 218 223 225 226 226 226 224 223 224 222 219 215 212 216 223 230 233 237 247
338 339 338 337 339 340 337 337 342 344 343 342 340 339 336 331 332 326 319 314 299 285 275 265 255 248 241 228 222 221 224 227 217 204 210 210 200 196 199 202 203 205 206 206 208 217 223 222 216 212 214 216 218 219 218 217 221 224 226 227 229 231 232 239 234 207 201 213 218 217 223 227 224 226 226 222 220 222 220 218 216 211 211 218 227 233 236 245
338 339 338 336 337 340 341 338 339 343 339 336 336 336 333 330 330 328 325 315 303 303 294 265 259 252 236 222 220 217 219 230 222 201 209 215 204 198 199 202 207 209 207 207 212 221 225 221 217 214 213 215 217 220 219 216 221 225 225 226 227 231 233 233 236 223 206 208 213 215 224 231 225 225 227 224 222 221 219 218 214 209 211 219 225 233 234 239
337 339 340 339 338 339 343 340 339 342 337 332 333 330 329 329 328 331 332 310 300 319 293 236 242 236 225 221 219 209 209 231 224 203 203 214 208 200 203 205 205 210 206 205 216 222 221 217 216 215 212 214 216 218 217 214 220 226 224 223 224 228 234 234 238 237 225 217 211 210 221 234 232 227 227 225 224 223 222 222 215 207 211 217 216 228 239 241
337 340 342 342 340 339 342 340 339 341 336 331 330 327 324 323 325 334 335 293 289 3 173 207 214 211 202 208 218 214 212 226 224 209 198 208 213 202 205 209 206 209 204 204 217 219 215 215 214 213 212 214 216 217 215 213 220 225 222 222 223 224 229 234 240 244 240 237 227 210 210 224 235 232 227 223 222 223 223 222 217 207 208 216 215 222 237 240
338 340 343 344 343 341 340 338 339 340 338 332 327 324 317 316 324 330 303 254 267 335 339 254 225 210 189 192 209 213 214 212 227 222 197 200 214 207 208 212 208 213 211 211 221 220 217 218 215 215 216 216 217 216 213 214 218 221 220 224 226 223 224 228 235 241 243 248 247 225 210 214 231 226 222 218 218 220 221 220 219 210 207 216 218 219 229 237
339 340 343 344 343 343 342 342 340 336 333 328 324 319 309 309 308 278 253 236 270 329 23 24 2 208 192 193 203 209 214 210 217 228 200 198 209 208 211 214 211 217 219 218 225 224 223 221 215 218 219 217 217 215 214 214 215 215 215 222 227 226 223 223 227 232 240 243 242 239 229 229 241 228 220 216 215 218 219 218 217 210 204 209 214 218 226 230
337 341 343 343 346 348 349 350 346 336 331 325 319 315 305 302 269 247 242 241 273 312 42 11 5 275 217 211 212 213 216 215 213 213 200 196 202 204 207 210 211 217 222 221 223 225 226 223 215 217 219 217 215 215 214 213 212 211 210 214 221 222 221 222 220 221 231 234 228 234 237 239 245 238 229 220 214 216 218 216 214 210 204 205 209 213 221 224
338 342 344 345 347 348 352 359 359 351 343 328 316 316 315 298 253 230 246 264 286 331 344 339 332 303 300 276 235 220 218 218 214 211 202 196 198 201 203 205 204 208 216 217 215 218 223 224 219 214 215 214 211 211 211 209 207 207 206 207 210 211 211 215 214 214 228 236 226 225 229 235 242 240 237 232 221 217 218 217 215 211 208 208 205 205 213 220
339 342 345 346 345 352 1 4 2 358 349 335 324 320 305 284 259 247 259 269 298 323 330 328 308 300 321 309 264 225 219 217 211 211 207 199 201 204 206 207 204 204 211 211 208 211 217 222 221 215 211 211 209 206 205 202 200 202 203 202 204 207 202 203 210 220 231 231 227 224 224 233 241 240 236 235 231 224 220 217 216 214 210 207 205 208 211 215
339 344 347 347 354 3 6 2 357 357 352 344 339 321 293 271 270 274 277 296 321 319 329 331 304 296 310 297 274 242 227 218 211 213 211 202 204 208 208 209 209 209 213 211 209 210 211 214 215 213 207 206 208 207 204 199 197 202 204 203 209 213 205 199 208 219 229 228 223 220 222 233 237 236 235 233 231 229 225 220 218 216 210 204 209 217 213 209
340 348 349 352 6 5 356 352 351 354 354 352 341 310 288 271 274 305 328 341 341 330 334 332 308 298 301 287 277 266 249 236 216 211 213 208 208 210 209 210 209 209 211 213 212 211 215 220 214 211 209 204 206 206 203 200 199 201 202 207 214 212 207 213 218 216 222 230 220 215 222 232 238 241 235 231 230 227 225 223 220 216 210 207 214 220 210 200
346 350 347 357 14 356 341 347 351 356 1 356 342 303 285 279 305 347 355 346 338 335 337 334 317 301 294 281 266 259 271 269 234 214 217 217 215 215 214 213 211 208 209 212 212 209 216 224 214 207 210 209 205 203 201 202 199 194 199 208 212 208 209 221 228 219 219 227 221 217 224 227 233 241 233 224 226 223 219 220 220 217 211 207 210 216 211 197
353 346 342 1 8 340 340 349 354 5 7 343 327 310 297 288 306 335 345 338 333 334 336 332 321 307 300 295 288 300 321 307 256 225 219 217 222 222 218 217 215 212 211 213 218 217 217 223 213 203 207 208 203 200 202 207 203 194 200 206 205 206 213 222 235 228 218 229 222 218 226 222 217 227 226 219 221 221 218 216 216 215 212 206 208 216 217 203
354 344 345 354 341 329 337 347 357 5 346 321 315 310 307 301 307 321 329 333 330 328 328 320 310 308 310 312 312 321 332 321 299 279 238 218 222 223 220 222 219 215 214 214 221 225 222 225 216 204 205 203 196 196 202 209 210 206 204 200 198 201 205 211 224 232 220 229 223 218 227 225 215 215 215 215 216 218 219 216 212 213 211 206 208 213 212 203
352 358 352 320 312 322 332 344 354 346 321 316 316 313 316 312 311 319 325 327 327 325 320 312 308 305 305 311 314 318 322 314 311 316 290 239 222 215 216 218 217 217 216 215 221 226 225 229 221 204 200 196 191 195 201 205 208 213 211 200 201 206 203 203 213 226 228 225 219 222 230 233 227 215 207 211 212 211 215 215 211 209 208 204 204 206 203 199
346 17 1 299 302 314 333 352 342 321 316 316 311 316 321 315 313 321 325 320 323 323 312 310 311 303 302 310 312 314 317 313 311 313 311 302 257 202 200 200 208 212 207 209 217 223 227 232 229 206 196 195 195 198 200 200 200 206 210 202 199 205 207 206 211 218 226 235 220 216 225 235 234 219 205 208 206 202 207 211 208 207 206 202 200 206 208 206
343 359 313 294 302 317 350 2 328 305 318 318 313 317 316 314 315 318 319 317 318 315 307 309 306 300 304 307 309 313 313 308 307 306 308 322 348 338 239 188 200 203 196 202 210 216 222 227 229 219 202 200 203 202 201 201 201 202 206 205 199 199 201 204 210 211 217 233 236 230 239 245 230 209 202 199 193 193 199 203 203 202 203 202 200 207 214 211
345 336 321 314 318 338 1 352 317 313 321 317 316 318 314 314 316 314 313 315 314 310 307 306 302 302 303 301 303 305 303 301 298 301 311 319 342 343 328 326 265 198 206 227 211 211 218 222 225 228 221 209 204 203 202 202 205 204 206 208 203 199 201 205 209 201 207 222 229 239 249 51 84 160 178 176 177 187 192 194 196 196 199 203 200 203 213 209
347 354 13 332 307 326 352 333 315 317 313 316 318 316 314 312 313 314 315 317 316 312 308 305 305 304 299 300 305 300 301 300 289 292 316 317 319 336 337 331 302 219 297 268 211 205 216 224 224 228 241 225 201 199 203 203 206 208 207 208 207 204 203 207 212 203 204 211 213 228 234 144 109 146 161 158 164 178 185 187 191 192 194 199 197 201 207 200
344 5 30 314 296 320 346 320 320 319 311 316 318 317 318 315 316 318 317 318 319 315 309 306 308 305 298 299 301 300 302 297 291 305 317 312 311 315 328 338 320 312 329 243 196 196 209 222 223 221 250 233 195 190 199 201 207 212 208 206 208 208 203 203 211 209 209 210 203 212 225 166 133 146 160 165 172 178 182 182 184 186 188 194 192 195 198 194
338 346 351 309 309 326 326 311 322 318 312 316 317 318 318 316 319 317 315 317 318 315 309 307 307 304 302 299 295 298 295 285 296 309 301 301 311 306 313 346 332 308 303 227 190 195 210 220 224 220 229 219 193 193 199 196 202 212 211 204 205 209 205 199 205 207 208 206 199 210 220 167 139 142 143 154 178 181 176 176 177 178 186 193 190 192 198 201
332 331 324 317 321 323 313 318 318 311 312 315 314 316 317 317 318 315 317 318 312 306 302 306 309 304 304 303 297 298 295 290 298 298 292 299 305 301 315 2 6 319 286 235 196 210 255 242 229 224 227 222 192 190 200 200 201 207 212 206 201 208 208 200 202 206 202 198 199 209 206 156 147 156 145 147 171 174 169 173 173 174 178 177 179 189 195 193
324 319 321 322 323 319 313 315 309 307 311 310 308 308 310 314 315 316 321 317 310 310 311 314 312 303 308 313 308 305 305 308 298 280 283 296 298 296 292 338 7 337 267 229 218 263 278 259 232 223 232 234 205 162 191 210 207 205 210 208 199 203 208 204 203 203 197 194 194 198 193 167 166 173 155 151 156 155 162 165 163 170 171 149 160 179 179 173
313 287 298 311 310 305 305 308 309 306 304 302 300 301 303 306 310 317 320 315 315 317 317 321 317 306 310 315 311 309 313 316 304 279 274 283 294 294 279 285 14 19 189 192 286 286 283 265 234 226 236 239 227 229 254 263 221 208 210 209 201 200 204 207 205 198 194 197 190 179 176 169 167 161 147 149 150 137 146 156 157 160 158 131 138 163 168 168
316 281 281 289 290 295 302 305 305 301 299 301 298 295 297 297 301 313 318 315 315 315 313 317 321 315 311 312 310 310 316 316 307 290 279 280 288 291 290 298 79 102 71 41 348 307 292 263 236 230 238 239 234 238 244 255 278 244 216 208 203 200 202 206 207 200 195 197 193 180 171 160 157 155 149 151 151 139 131 146 154 151 158 160 140 144 170 186
325 288 285 290 289 298 306 302 301 301 302 304 298 293 295 298 303 314 318 307 301 304 308 309 311 308 305 307 307 305 313 311 296 290 291 287 280 275 286 304 344 65 40 17 351 350 313 253 233 231 239 244 239 237 241 241 258 278 238 209 202 201 200 203 207 204 198 196 195 188 178 171 166 166 164 156 155 154 137 134 143 135 140 165 156 142 163 198
329 292 279 288 292 301 308 301 301 304 303 301 298 299 303 303 304 307 303 295 293 298 304 301 303 309 307 304 303 303 308 306 294 289 288 282 276 264 260 283 326 7 5 349 346 1 349 279 245 232 245 254 241 231 235 232 237 273 269 216 200 201 199 200 205 205 200 193 194 194 185 176 165 160 164 161 157 158 146 140 153 147 127 141 148 149 155 167
332 301 270 274 282 291 303 304 303 300 299 301 302 303 304 303 303 303 298 297 301 305 304 301 302 306 302 297 298 302 305 304 299 295 286 274 265 257 249 257 304 331 325 326 337 349 349 331 279 244 249 251 242 230 224 219 226 260 264 215 200 205 205 201 203 207 205 197 195 196 188 181 173 160 160 164 167 167 155 150 162 164 152 149 154 166 167 161
Height
3144 3142 3141 3140 3139 3139 3138 3137 3136 3135 3134 3133 3132 3131 3131 3130 3129 3127 3127 3126 3126 3125 3125 3124 3124 3124 3123 3123 3123 3123 3123 3124 3124 3124 3125 3126 3125 3126 3127 3128 3129 3130 3132 3134 3136 3138 3140 3142 3144 3146 3147 3148 3149 3151 3153 3155 3157 3158 3158 3158 3158 3156 3155 3153 3153 3153 3153 3154 3154 3154 3155 3155 3155 3155 3155 3155 3156 3156 3157 3157 3158 3158 3157 3158 3159 3160 3160 3161
3142 3141 3140 3139 3138 3137 3136 3135 3134 3133 3132 3131 3130 3130 3129 3129 3128 3126 3125 3125 3125 3125 3124 3123 3122 3122 3122 3121 3121 3121 3121 3122 3121 3122 3124 3124 3123 3125 3126 3127 3128 3129 3130 3132 3135 3137 3139 3141 3143 3145 3146 3148 3149 3151 3153 3155 3156 3157 3158 3158 3158 3156 3155 3154 3153 3152 3152 3153 3154 3155 3155 3155 3155 3156 3155 3155 3156 3156 3157 3158 3159 3158 3157 3158 3159 3160 3161 3162
3141 3140 3139 3138 3137 3136 3135 3134 3133 3132 3131 3130 3129 3128 3128 3127 3126 3125 3124 3124 3123 3123 3123 3122 3121 3121 3120 3120 3120 3120 3120 3120 3119 3121 3123 3121 3121 3123 3124 3125 3126 3127 3129 3132 3134 3136 3138 3140 3142 3144 3145 3147 3149 3151 3152 3154 3156 3156 3157 3157 3157 3156 3156 3155 3154 3152 3151 3151 3153 3156 3156 3156 3156 3156 3155 3155 3155 3156 3157 3158 3158 3158 3157 3158 3159 3160 3162 3163
3140 3139 3138 3137 3136 3135 3134 3132 3131 3130 3129 3128 3127 3127 3126 3126 3125 3124 3123 3122 3122 3122 3122 3121 3120 3119 3119 3119 3119 3118 3118 3118 3117 3118 3120 3119 3120 3122 3122 3124 3125 3126 3128 3130 3133 3135 3137 3139 3141 3143 3145 3146 3148 3151 3152 3153 3155 3155 3156 3156 3155 3155 3156 3156 3154 3154 3152 3151 3154 3155 3156 3155 3156 3156 3155 3154 3154 3155 3157 3157 3158 3157 3157 3158 3159 3160 3162 3163
3139 3138 3137 3136 3135 3133 3132 3131 3130 3129 3128 3127 3126 3125 3124 3124 3123 3122 3121 3121 3121 3121 3120 3120 3119 3118 3118 3118 3118 3117 3118 3118 3115 3115 3118 3118 3119 3120 3121 3123 3123 3125 3126 3128 3131 3133 3136 3138 3140 3142 3144 3145 3148 3150 3151 3152 3154 3154 3154 3155 3155 3154 3155 3155 3155 3155 3151 3152 3155 3155 3154 3154 3155 3157 3155 3155 3154 3155 3156 3156 3157 3157 3157 3158 3159 3160 3162 3163
3138 3137 3136 3134 3133 3132 3131 3130 3129 3127 3126 3125 3124 3123 3123 3122 3121 3120 3120 3119 3119 3119 3119 3118 3117 3116 3116 3116 3117 3116 3117 3116 3113 3113 3116 3117 3117 3118 3120 3122 3123 3124 3125 3126 3129 3131 3134 3137 3139 3141 3142 3144 3146 3148 3150 3151 3152 3153 3153 3155 3155 3153 3154 3154 3155 3155 3151 3153 3156 3154 3154 3154 3155 3156 3156 3155 3154 3155 3155 3155 3156 3156 3157 3157 3159 3160 3162 3164
3137 3135 3134 3133 3132 3131 3129 3128 3127 3126 3125 3124 3123 3122 3121 3120 3119 3118 3118 3117 3117 3117 3117 3117 3115 3115 3115 3115 3115 3115 3115 3114 3112 3113 3115 3116 3116 3117 3119 3120 3121 3123 3123 3124 3127 3129 3132 3135 3138 3140 3142 3143 3145 3147 3149 3151 3151 3151 3152 3153 3154 3153 3153 3153 3153 3154 3153 3154 3156 3154 3155 3155 3155 3156 3155 3154 3153 3154 3154 3154 3156 3157 3157 3157 3159 3160 3162 3164
3135 3134 3132 3131 3130 3129 3127 3126 3125 3124 3123 3122 3121 3120 3119 3118 3117 3117 3116 3115 3115 3115 3115 3115 3114 3113 3113 3113 3113 3113 3114 3114 3112 3111 3112 3114 3115 3116 3117 3119 3120 3121 3122 3124 3125 3128 3131 3134 3136 3139 3141 3142 3144 3146 3148 3150 3150 3150 3150 3151 3152 3152 3153 3153 3153 3153 3154 3154 3155 3155 3155 3155 3155 3155 3155 3154 3152 3154 3155 3155 3155 3157 3157 3158 3159 3160 3161 3162
3134 3132 3131 3129 3128 3127 3125 3124 3123 3122 3121 3120 3119 3119 3118 3117 3116 3115 3114 3113 3113 3113 3113 3112 3112 3112 3112 3112 3111 3111 3112 3112 3110 3109 3110 3113 3114 3115 3116 3117 3119 3120 3121 3123 3125 3127 3131 3133 3135 3138 3140 3142 3144 3146 3147 3148 3148 3148 3149 3150 3151 3151 3152 3152 3152 3153 3153 3153 3153 3154 3154 3155 3155 3155 3155 3155 3154 3154 3155 3155 3156 3157 3157 3157 3159 3160 3160 3162
3132 3131 3129 3127 3126 3125 3123 3122 3120 3119 3118 3117 3117 3116 3116 3115 3114 3113 3112 3111 3111 3110 3110 3110 3110 3110 3110 3110 3109 3109 3111 3111 3110 3108 3110 3111 3112 3114 3115 3116 3117 3119 3120 3122 3124 3126 3130 3132 3135 3138 3140 3142 3143 3145 3146 3146 3146 3147 3148 3149 3149 3150 3150 3150 3151 3151 3151 3151 3152 3152 3153 3154 3154 3154 3154 3155 3154 3154 3155 3156 3156 3157 3157 3158 3159 3160 3161 3162
3131 3129 3127 3126 3124 3123 3121 3120 3118 3117 3116 3115 3114 3114 3113 3112 3112 3111 3110 3109 3108 3108 3108 3107 3107 3107 3107 3107 3106 3108 3110 3111 3109 3107 3108 3110 3111 3113 3114 3115 3116 3118 3119 3121 3123 3126 3129 3132 3136 3138 3139 3140 3142 3143 3144 3144 3145 3146 3147 3147 3147 3147 3148 3149 3149 3150 3149 3149 3150 3151 3152 3153 3153 3153 3153 3153 3154 3154 3154 3155 3156 3157 3158 3159 3160 3161 3162 3162
3129 3127 3125 3124 3122 3120 3119 3117 3116 3114 3113 3112 3111 3111 3110 3110 3109 3108 3108 3107 3106 3106 3105 3105 3104 3105 3105 3104 3105 3107 3108 3108 3107 3107 3108 3107 3110 3112 3113 3114 3115 3117 3119 3120 3122 3125 3129 3132 3135 3137 3138 3138 3140 3141 3142 3143 3144 3145 3145 3145 3145 3146 3146 3146 3147 3148 3148 3148 3149 3150 3151 3151 3151 3152 3152 3152 3153 3154 3153 3155 3157 3157 3158 3159 3159 3160 3162 3163
3127 3125 3123 3121 3120 3118 3116 3115 3114 3112 3111 3109 3108 3108 3107 3107 3106 3106 3105 3104 3104 3103 3103 3103 3102 3102 3101 3100 3104 3106 3105 3105 3105 3106 3107 3107 3108 3111 3112 3112 3114 3116 3117 3119 3122 3125 3128 3131 3133 3135 3137 3138 3139 3140 3140 3141 3142 3142 3143 3143 3143 3144 3143 3144 3145 3146 3147 3147 3148 3149 3149 3148 3149 3150 3151 3151 3152 3154 3154 3155 3157 3157 3157 3159 3159 3160 3161 3162
3125 3124 3121 3120 3118 3116 3114 3112 3111 3110 3108 3106 3105 3105 3104 3104 3103 3103 3102 3102 3101 3101 3100 3100 3099 3099 3096 3097 3103 3103 3102 3103 3103 3103 3105 3106 3107 3109 3110 3111 3113 3115 3116 3118 3121 3125 3128 3130 3132 3133 3135 3136 3137 3139 3139 3139 3140 3140 3141 3141 3141 3141 3140 3141 3143 3144 3145 3145 3147 3148 3147 3146 3147 3148 3149 3150 3151 3153 3154 3155 3156 3157 3157 3158 3159 3159 3160 3162
3124 3122 3120 3118 3116 3114 3112 3110 3108 3107 3106 3104 3102 3101 3101 3100 3099 3099 3099 3099 3098 3098 3098 3097 3096 3096 3093 3095 3099 3099 3099 3100 3099 3101 3104 3105 3106 3107 3109 3110 3112 3114 3115 3117 3120 3125 3127 3129 3130 3131 3132 3134 3136 3137 3137 3137 3137 3138 3138 3137 3138 3138 3138 3139 3140 3141 3142 3143 3145 3146 3145 3145 3146 3147 3148 3149 3151 3152 3153 3155 3156 3157 3158 3158 3158 3159 3160 3160
3122 3119 3117 3115 3113 3112 3109 3107 3106 3104 3103 3101 3100 3098 3097 3097 3096 3095 3095 3096 3095 3095 3095 3094 3094 3093 3091 3092 3095 3095 3096 3098 3099 3100 3101 3103 3105 3106 3108 3110 3112 3114 3115 3117 3119 3123 3126 3127 3128 3129 3131 3132 3133 3134 3135 3134 3133 3134 3134 3133 3134 3136 3136 3137 3137 3138 3140 3141 3143 3143 3143 3144 3145 3146 3147 3148 3150 3151 3153 3154 3155 3157 3159 3159 3159 3159 3159 3160
3120 3118 3116 3113 3112 3110 3107 3105 3103 3101 3100 3098 3097 3095 3094 3094 3093 3091 3091 3092 3092 3092 3091 3091 3091 3090 3089 3090 3092 3093 3094 3095 3097 3098 3098 3100 3103 3105 3108 3109 3111 3113 3115 3117 3118 3121 3124 3125 3126 3127 3128 3129 3130 3132 3132 3129 3128 3129 3131 3131 3132 3134 3135 3134 3134 3135 3137 3139 3140 3141 3142 3143 3144 3146 3146 3147 3149 3151 3152 3153 3154 3155 3157 3159 3159 3159 3160 3160
3119 3117 3115 3112 3110 3108 3106 3103 3100 3098 3096 3095 3094 3092 3090 3091 3089 3087 3087 3088 3088 3089 3088 3088 3088 3088 3088 3087 3089 3092 3091 3092 3094 3095 3096 3098 3101 3104 3107 3108 3110 3112 3114 3116 3117 3119 3121 3122 3124 3124 3124 3124 3125 3126 3124 3122 3125 3126 3127 3129 3130 3131 3132 3131 3131 3133 3135 3136 3138 3139 3141 3141 3143 3145 3146 3147 3148 3149 3151 3151 3152 3153 3154 3157 3159 3159 3159 3160
3119 3116 3113 3111 3108 3107 3105 3102 3099 3096 3093 3092 3091 3089 3087 3087 3087 3083 3081 3084 3084 3085 3085 3084 3082 3085 3085 3084 3086 3089 3089 3090 3091 3092 3093 3096 3098 3101 3105 3107 3109 3111 3113 3113 3114 3115 3118 3120 3120 3118 3116 3117 3118 3119 3119 3122 3125 3126 3126 3127 3128 3129 3128 3128 3129 3131 3133 3135 3136 3137 3139 3139 3141 3143 3145 3146 3147 3148 3149 3149 3149 3151 3153 3154 3156 3157 3158 3160
3118 3115 3112 3110 3107 3105 3103 3100 3098 3095 3091 3089 3087 3086 3083 3082 3083 3079 3077 3080 3080 3079 3081 3079 3076 3079 3082 3082 3084 3087 3088 3088 3088 3089 3091 3093 3096 3099 3103 3105 3107 3109 3109 3110 3111 3112 3116 3116 3112 3109 3110 3114 3116 3118 3120 3123 3125 3125 3125 3125 3124 3125 3125 3125 3127 3129 3132 3133 3134 3136 3137 3138 3138 3141 3143 3144 3145 3147 3149 3148 3146 3149 3151 3151 3154 3156 3157 3159
3117 3114 3111 3108 3106 3103 3102 3099 3097 3094 3091 3088 3084 3083 3081 3079 3079 3076 3072 3073 3076 3075 3074 3075 3074 3074 3078 3080 3080 3084 3087 3087 3086 3087 3089 3090 3094 3097 3099 3101 3103 3104 3104 3108 3111 3111 3113 3109 3103 3105 3110 3113 3116 3118 3120 3122 3123 3123 3123 3122 3121 3121 3122 3123 3125 3127 3130 3131 3132 3134 3135 3136 3137 3139 3141 3142 3144 3145 3147 3148 3145 3145 3149 3150 3152 3155 3155 3157
3116 3113 3110 3107 3105 3102 3100 3099 3095 3093 3091 3088 3085 3082 3081 3080 3078 3075 3068 3063 3068 3072 3069 3069 3070 3068 3073 3077 3076 3078 3080 3082 3085 3085 3086 3088 3090 3093 3095 3096 3098 3099 3102 3106 3108 3108 3107 3100 3099 3106 3110 3113 3115 3117 3118 3120 3121 3122 3121 3121 3119 3118 3119 3120 3123 3126 3129 3130 3130 3132 3133 3134 3136 3137 3139 3141 3142 3143 3145 3147 3146 3144 3146 3148 3150 3152 3153 3154
3113 3111 3109 3106 3104 3100 3098 3097 3095 3092 3089 3087 3084 3083 3081 3079 3077 3075 3069 3058 3057 3064 3064 3062 3064 3064 3068 3073 3074 3074 3073 3075 3080 3081 3083 3084 3086 3090 3091 3092 3094 3098 3099 3100 3101 3102 3098 3093 3098 3106 3109 3111 3112 3114 3116 3117 3119 3119 3119 3119 3117 3117 3116 3115 3118 3122 3126 3128 3129 3130 3131 3132 3134 3135 3137 3138 3140 3142 3143 3145 3146 3144 3143 3145 3148 3150 3151 3152
3111 3109 3106 3104 3103 3099 3095 3095 3094 3091 3088 3085 3084 3082 3080 3078 3076 3071 3067 3058 3048 3052 3059 3059 3059 3059 3062 3068 3071 3070 3068 3071 3076 3078 3079 3080 3083 3087 3088 3090 3092 3094 3095 3095 3097 3096 3092 3093 3100 3104 3106 3108 3109 3110 3113 3114 3115 3115 3116 3116 3116 3116 3115 3114 3115 3119 3123 3126 3127 3129 3129 3129 3131 3132 3134 3136 3138 3140 3141 3143 3145 3144 3142 3142 3145 3147 3149 3150
3110 3107 3104 3102 3101 3098 3094 3091 3091 3090 3087 3086 3084 3083 3080 3078 3076 3070 3065 3057 3044 3043 3052 3053 3051 3053 3058 3065 3065 3064 3067 3067 3070 3075 3076 3076 3079 3083 3086 3088 3089 3090 3091 3093 3095 3093 3092 3096 3100 3101 3102 3104 3106 3107 3108 3110 3111 3112 3112 3113 3114 3116 3116 3115 3115 3116 3119 3122 3124 3126 3126 3126 3128 3130 3130 3133 3135 3136 3138 3139 3142 3144 3142 3141 3143 3145 3146 3148
3108 3105 3102 3099 3097 3097 3094 3090 3089 3088 3086 3085 3083 3082 3080 3077 3075 3072 3066 3058 3045 3040 3045 3046 3047 3049 3053 3057 3057 3061 3065 3061 3064 3072 3074 3073 3077 3080 3083 3085 3084 3086 3089 3092 3094 3091 3091 3095 3098 3098 3099 3101 3102 3103 3104 3107 3108 3107 3108 3111 3114 3115 3115 3115 3114 3114 3115 3117 3121 3123 3123 3123 3125 3127 3128 3130 3131 3133 3135 3136 3138 3141 3141 3139 3141 3143 3144 3145
3105 3103 3100 3097 3094 3092 3092 3089 3087 3086 3085 3083 3082 3080 3079 3077 3075 3072 3069 3063 3050 3042 3042 3043 3046 3046 3048 3051 3053 3057 3058 3055 3060 3066 3069 3070 3074 3078 3079 3080 3081 3082 3087 3091 3088 3084 3087 3092 3093 3094 3096 3097 3098 3098 3100 3104 3105 3103 3106 3110 3111 3113 3114 3114 3113 3111 3111 3113 3116 3118 3121 3122 3121 3122 3124 3127 3128 3129 3131 3133 3134 3137 3138 3137 3139 3140 3141 3144
3103 3101 3098 3095 3092 3088 3087 3086 3084 3083 3082 3080 3079 3078 3076 3076 3075 3073 3074 3068 3052 3044 3044 3043 3044 3045 3047 3050 3049 3050 3052 3055 3057 3058 3064 3068 3069 3073 3074 3075 3078 3079 3083 3085 3079 3079 3084 3086 3088 3091 3092 3092 3093 3094 3098 3102 3102 3102 3106 3108 3109 3111 3112 3113 3113 3110 3110 3110 3109 3111 3116 3118 3116 3118 3121 3122 3124 3125 3126 3128 3130 3133 3134 3135 3138 3138 3139 3142
3101 3098 3096 3094 3090 3087 3084 3082 3081 3080 3079 3077 3076 3076 3074 3075 3074 3073 3077 3069 3049 3045 3047 3045 3046 3046 3047 3049 3048 3049 3052 3055 3056 3056 3061 3065 3064 3068 3069 3071 3077 3079 3080 3079 3077 3080 3082 3082 3086 3088 3088 3088 3090 3093 3096 3098 3099 3102 3106 3107 3108 3109 3110 3112 3112 3111 3112 3109 3105 3106 3110 3110 3108 3112 3116 3116 3118 3119 3121 3125 3127 3129 3131 3132 3135 3136 3136 3138
3099 3096 3094 3091 3089 3087 3083 3080 3077 3076 3075 3074 3074 3073 3072 3073 3073 3073 3073 3063 3049 3047 3049 3048 3048 3048 3049 3050 3049 3049 3050 3053 3056 3056 3058 3061 3062 3065 3068 3072 3076 3077 3077 3077 3076 3078 3080 3081 3084 3084 3084 3086 3089 3092 3094 3096 3098 3101 3104 3105 3106 3106 3107 3109 3109 3112 3111 3105 3104 3106 3105 3105 3104 3105 3109 3110 3112 3115 3118 3121 3123 3126 3128 3130 3132 3133 3133 3136
3097 3095 3092 3089 3086 3084 3082 3079 3077 3075 3073 3071 3071 3072 3071 3071 3072 3071 3065 3056 3049 3048 3047 3046 3046 3046 3048 3051 3049 3048 3048 3050 3054 3055 3055 3057 3059 3061 3065 3068 3070 3072 3073 3072 3072 3075 3078 3078 3078 3079 3082 3085 3087 3089 3091 3094 3096 3099 3101 3103 3104 3104 3106 3106 3105 3108 3104 3099 3103 3106 3106 3106 3102 3101 3105 3106 3108 3112 3114 3117 3119 3122 3124 3128 3131 3131 3130 3133
3095 3093 3090 3087 3084 3082 3080 3077 3075 3073 3071 3070 3069 3069 3070 3070 3069 3066 3059 3053 3051 3048 3045 3043 3042 3041 3043 3044 3045 3045 3046 3046 3049 3051 3052 3053 3054 3055 3056 3058 3061 3064 3064 3064 3068 3072 3073 3072 3074 3076 3079 3081 3083 3085 3088 3090 3092 3095 3097 3099 3100 3100 3101 3100 3099 3100 3097 3097 3102 3105 3107 3105 3098 3099 3104 3104 3106 3109 3111 3113 3116 3118 3120 3124 3128 3128 3127 3130
3093 3091 3088 3085 3083 3079 3075 3072 3071 3071 3069 3069 3069 3069 3071 3070 3066 3062 3059 3056 3053 3049 3046 3044 3040 3040 3040 3040 3041 3042 3044 3044 3045 3047 3049 3050 3051 3051 3052 3054 3057 3057 3056 3060 3065 3066 3067 3069 3071 3072 3072 3075 3077 3079 3081 3083 3086 3090 3091 3093 3094 3092 3093 3096 3098 3098 3097 3098 3101 3104 3105 3098 3093 3098 3102 3102 3104 3106 3108 3111 3113 3115 3118 3120 3123 3124 3124 3126
3091 3088 3085 3083 3079 3074 3071 3071 3071 3070 3069 3069 3070 3070 3071 3069 3064 3062 3060 3056 3053 3049 3046 3043 3040 3040 3041 3041 3041 3041 3041 3042 3043 3044 3046 3047 3048 3048 3049 3051 3053 3055 3057 3060 3060 3059 3060 3060 3060 3062 3065 3068 3072 3074 3077 3079 3083 3086 3088 3091 3090 3087 3088 3094 3096 3096 3096 3097 3098 3101 3097 3090 3091 3095 3097 3099 3102 3104 3105 3107 3109 3112 3113 3116 3119 3121 3123 3123
3088 3085 3083 3080 3076 3074 3074 3074 3072 3070 3069 3069 3071 3072 3070 3067 3064 3063 3060 3056 3053 3049 3045 3044 3044 3042 3040 3041 3041 3040 3040 3041 3042 3043 3042 3042 3043 3043 3045 3046 3048 3053 3056 3055 3054 3055 3055 3052 3054 3060 3063 3065 3068 3071 3076 3078 3079 3083 3086 3087 3085 3084 3088 3091 3091 3092 3094 3093 3093 3093 3089 3088 3092 3093 3094 3097 3097 3099 3103 3104 3106 3108 3107 3111 3115 3117 3120 3121
3086 3083 3082 3079 3077 3077 3076 3074 3071 3070 3069 3070 3071 3071 3070 3066 3063 3063 3061 3058 3056 3053 3049 3046 3047 3046 3042 3041 3041 3042 3042 3039 3040 3041 3040 3040 3041 3040 3042 3043 3045 3048 3050 3050 3049 3050 3051 3050 3053 3059 3060 3062 3065 3068 3072 3073 3074 3078 3080 3079 3080 3085 3088 3088 3087 3087 3089 3088 3086 3086 3085 3088 3091 3090 3091 3093 3094 3095 3098 3100 3104 3105 3103 3106 3110 3111 3115 3119
3085 3082 3080 3078 3077 3078 3076 3073 3071 3070 3071 3072 3071 3071 3069 3065 3063 3063 3064 3062 3059 3057 3054 3050 3049 3048 3045 3041 3040 3041 3039 3035 3035 3038 3038 3038 3038 3038 3040 3042 3043 3045 3046 3048 3048 3048 3047 3048 3050 3053 3055 3059 3063 3067 3070 3071 3071 3073 3073 3075 3081 3086 3087 3087 3086 3084 3084 3084 3081 3081 3081 3083 3085 3085 3087 3089 3091 3092 3094 3096 3100 3102 3102 3104 3105 3106 3110 3116
3086 3083 3079 3077 3077 3077 3075 3072 3070 3070 3072 3073 3071 3070 3069 3067 3065 3064 3064 3063 3061 3058 3057 3054 3051 3049 3046 3043 3040 3039 3039 3035 3033 3033 3033 3033 3034 3036 3038 3039 3041 3042 3044 3047 3047 3046 3046 3045 3045 3048 3051 3056 3061 3065 3066 3068 3069 3069 3071 3075 3078 3079 3080 3083 3084 3081 3081 3080 3078 3077 3077 3077 3078 3080 3082 3084 3086 3089 3091 3093 3095 3098 3100 3102 3103 3103 3106 3112
3086 3084 3080 3079 3078 3076 3074 3072 3070 3071 3072 3072 3070 3069 3068 3067 3065 3064 3063 3062 3061 3059 3057 3056 3053 3049 3047 3046 3042 3040 3041 3039 3035 3032 3031 3032 3031 3032 3034 3035 3037 3039 3041 3045 3044 3044 3045 3043 3040 3042 3048 3053 3057 3057 3058 3060 3065 3068 3070 3072 3073 3074 3076 3079 3080 3079 3077 3077 3077 3077 3076 3074 3074 3075 3078 3081 3083 3085 3088 3090 3092 3095 3097 3101 3102 3101 3104 3109
3085 3084 3083 3080 3077 3075 3073 3072 3072 3073 3072 3071 3070 3069 3068 3066 3064 3063 3062 3061 3060 3059 3057 3055 3053 3049 3047 3046 3044 3041 3039 3038 3037 3034 3031 3031 3030 3028 3027 3029 3030 3030 3033 3037 3040 3041 3042 3041 3038 3038 3044 3047 3046 3046 3049 3054 3059 3062 3064 3065 3068 3071 3073 3075 3076 3077 3076 3074 3074 3076 3075 3072 3071 3072 3075 3077 3080 3083 3085 3087 3090 3092 3095 3099 3101 3101 3103 3107
3084 3084 3083 3079 3075 3074 3073 3072 3073 3073 3072 3071 3070 3068 3067 3065 3063 3063 3062 3060 3059 3058 3056 3054 3052 3050 3047 3045 3044 3042 3039 3036 3036 3034 3031 3031 3029 3026 3024 3023 3024 3025 3027 3030 3033 3036 3038 3038 3037 3037 3037 3037 3037 3041 3047 3052 3055 3057 3059 3061 3063 3067 3070 3071 3072 3073 3075 3074 3072 3073 3072 3068 3067 3069 3072 3075 3078 3081 3083 3086 3087 3090 3093 3096 3099 3101 3102 3104
3082 3082 3081 3077 3074 3073 3072 3072 3074 3072 3071 3070 3068 3067 3066 3064 3062 3062 3061 3059 3058 3056 3055 3053 3052 3050 3048 3046 3044 3043 3040 3036 3033 3033 3033 3030 3028 3027 3025 3022 3022 3025 3028 3028 3030 3034 3036 3036 3036 3035 3032 3032 3037 3043 3047 3051 3054 3057 3058 3059 3061 3063 3065 3066 3067 3069 3072 3074 3073 3073 3071 3068 3067 3069 3072 3075 3077 3079 3082 3084 3086 3089 3091 3093 3097 3099 3100 3101
3080 3080 3079 3078 3075 3072 3072 3072 3073 3071 3070 3069 3067 3066 3065 3063 3061 3060 3059 3058 3056 3055 3054 3052 3051 3049 3047 3046 3043 3041 3040 3035 3031 3033 3034 3030 3027 3025 3025 3025 3024 3025 3027 3027 3029 3034 3035 3034 3033 3033 3032 3031 3036 3042 3046 3050 3053 3053 3054 3056 3058 3059 3062 3064 3066 3068 3070 3071 3072 3073 3071 3070 3070 3071 3073 3075 3077 3079 3081 3084 3086 3088 3089 3092 3094 3097 3097 3099
3079 3078 3079 3079 3075 3072 3072 3072 3071 3070 3069 3067 3066 3064 3063 3062 3060 3059 3058 3057 3055 3054 3052 3050 3049 3048 3045 3044 3042 3040 3040 3036 3031 3032 3033 3028 3024 3022 3023 3025 3024 3025 3026 3024 3025 3029 3029 3030 3031 3031 3030 3028 3029 3035 3040 3044 3046 3046 3048 3052 3055 3057 3060 3063 3065 3066 3067 3067 3069 3071 3070 3069 3070 3072 3073 3075 3078 3080 3081 3084 3086 3087 3089 3091 3093 3095 3095 3097
3077 3076 3077 3078 3075 3072 3072 3072 3071 3069 3068 3066 3064 3063 3062 3060 3060 3058 3056 3056 3054 3052 3050 3048 3047 3046 3044 3043 3041 3039 3039 3038 3033 3030 3030 3027 3022 3019 3019 3019 3020 3024 3025 3021 3021 3024 3024 3026 3028 3027 3026 3022 3020 3025 3031 3036 3040 3043 3044 3047 3051 3054 3056 3059 3062 3063 3064 3065 3067 3069 3068 3068 3070 3072 3074 3076 3078 3079 3081 3084 3086 3087 3088 3089 3089 3092 3094 3096
3076 3075 3076 3075 3073 3072 3071 3071 3070 3069 3067 3065 3062 3061 3060 3059 3058 3057 3055 3054 3051 3049 3048 3045 3044 3043 3042 3041 3040 3037 3037 3038 3035 3031 3029 3027 3024 3021 3019 3017 3017 3021 3022 3019 3021 3023 3023 3023 3024 3024 3024 3022 3021 3025 3030 3034 3038 3039 3040 3042 3047 3051 3053 3056 3059 3059 3061 3064 3065 3067 3068 3068 3069 3071 3073 3076 3078 3078 3080 3083 3084 3085 3086 3085 3086 3090 3093 3095
3076 3075 3075 3073 3070 3070 3071 3070 3069 3067 3066 3064 3061 3060 3059 3057 3056 3055 3054 3053 3050 3046 3045 3043 3041 3041 3040 3039 3038 3037 3036 3035 3034 3032 3030 3029 3027 3023 3021 3019 3018 3019 3019 3020 3023 3024 3023 3022 3021 3022 3023 3024 3026 3027 3029 3032 3033 3035 3038 3040 3043 3048 3051 3053 3055 3057 3060 3062 3063 3065 3068 3068 3069 3071 3072 3074 3077 3079 3080 3083 3084 3084 3085 3086 3087 3090 3092 3095
3075 3073 3073 3072 3069 3068 3068 3067 3067 3066 3064 3062 3060 3059 3058 3056 3055 3054 3053 3052 3049 3046 3043 3041 3040 3039 3038 3037 3036 3035 3034 3032 3032 3032 3031 3031 3029 3025 3022 3020 3018 3017 3016 3019 3023 3024 3022 3021 3020 3021 3022 3024 3027 3028 3028 3029 3029 3032 3036 3037 3040 3045 3047 3049 3052 3056 3059 3060 3061 3064 3066 3067 3069 3071 3072 3074 3077 3079 3080 3083 3084 3083 3085 3088 3090 3091 3093 3096
3073 3070 3069 3069 3067 3065 3065 3065 3065 3064 3062 3060 3059 3058 3056 3055 3054 3053 3051 3049 3048 3046 3043 3040 3039 3038 3036 3036 3035 3034 3034 3032 3031 3031 3031 3031 3031 3028 3024 3022 3019 3016 3013 3017 3022 3022 3021 3020 3020 3020 3022 3024 3027 3028 3029 3029 3028 3029 3033 3035 3038 3041 3045 3048 3052 3055 3057 3060 3061 3063 3066 3068 3069 3071 3073 3075 3078 3080 3081 3083 3084 3085 3087 3089 3092 3093 3095 3096
3071 3068 3066 3065 3064 3063 3062 3062 3062 3061 3060 3058 3057 3056 3054 3054 3053 3052 3050 3048 3047 3046 3044 3042 3040 3038 3036 3034 3033 3033 3034 3032 3031 3031 3031 3031 3031 3030 3028 3025 3021 3015 3012 3016 3021 3021 3021 3021 3021 3021 3022 3023 3025 3027 3029 3030 3029 3028 3030 3033 3036 3039 3043 3047 3050 3053 3055 3059 3061 3063 3065 3068 3069 3071 3074 3076 3078 3080 3081 3083 3085 3087 3088 3090 3092 3095 3096 3097
3068 3066 3064 3062 3062 3061 3060 3060 3060 3060 3059 3058 3055 3054 3053 3052 3052 3050 3049 3048 3045 3044 3044 3042 3039 3037 3035 3033 3032 3032 3033 3032 3031 3030 3030 3030 3030 3030 3029 3026 3023 3018 3016 3018 3019 3020 3022 3023 3023 3023 3022 3020 3023 3027 3028 3029 3030 3028 3027 3028 3031 3035 3040 3044 3048 3051 3053 3057 3060 3062 3063 3066 3069 3071 3073 3075 3077 3079 3081 3083 3086 3087 3088 3090 3093 3096 3097 3099
3065 3064 3063 3061 3059 3060 3059 3058 3058 3058 3058 3056 3055 3053 3052 3051 3051 3049 3047 3045 3044 3043 3042 3040 3038 3036 3035 3033 3031 3031 3031 3030 3030 3030 3030 3029 3029 3029 3028 3027 3024 3022 3022 3023 3022 3022 3024 3024 3024 3024 3022 3019 3021 3025 3027 3029 3029 3028 3025 3026 3030 3034 3038 3043 3047 3050 3052 3055 3058 3060 3062 3065 3069 3070 3072 3074 3076 3078 3080 3082 3084 3085 3087 3090 3092 3093 3095 3098